FLOCK 2'-12

Last updated on Aug. 2, 2016, 5:39 p.m. UTC

1 41614U 16040R   16215.48486678  .00003070  00000-0  14558-3 0  9999
2 41614  97.5063 274.4350 0013334 114.6213 245.6413 15.19975752  6221
UTC
Height (km)
Latitude
Longitude
Inclination
Orbital Period
UTC large
Height (km)
Speed (km/s)
/
Latitude / Longitude
Inclination (degrees)
Orbital Period (minutes)
Azimuth
Elevation
Range (km)
Doppler Factor
iOS Compass Heading
iOS Angle